Weather History for LIRA - January, 2014

Change the Weather History Date:

Saturday, January 18, 2014

  Actual Average Record
Temperature  
Mean Temperature 56 °F -  
Max Temperature 60 °F 54 °F - ()
Min Temperature 53 °F 38 °F - ()
Degree Days  
Heating Degree Days 8    
Growing Degree Days 6 (Base 50)    
Moisture  
Dew Point 49 °F    
Average Humidity 73    
Maximum Humidity 94    
Minimum Humidity 43    
Precipitation  
Precipitation 0.00 in 0.13 in - ()
Sea Level Pressure  
Sea Level Pressure 29.81 in    
Wind  
Wind Speed 14 mph ()    
Max Wind Speed 25 mph    
Max Gust Speed 41 mph    
Visibility 6.2 miles    
Events Rain    
T = Trace of Precipitation, MM = Missing Value Source: Averaged Metar Reports

Daily Weather History Graph

Daily Weather History Graph

Search for Another Location

Airport or City:

Trip Planner

Search our weather history database for the weather conditions in past years. The results will help you decide how hot, cold, wet, or windy it might be!

Date:

Astronomy

Jan. 18, 2014 Rise Set
Actual Time 7:33 AM CET 5:07 PM CET
Civil Twilight 7:02 AM CET 5:37 PM CET
Nautical Twilight 6:28 AM CET 6:11 PM CET
Astronomical Twilight 5:55 AM CET 6:45 PM CET
Moon 7:36 PM CET (1/18) 8:21 AM CET (1/18)
Length of Visible Light 10h 35m
Length of Day
9h 33m
Waning Gibbous, 95% of the Moon is Illuminated
Jan 18
Waning Gibbous
Jan 24
Last Quarter
Jan 30
New
Feb 6
First Quarter
Feb 15
Full

Hourly Weather History & Observations

Time (CET) Temp. Dew Point Humidity Pressure Visibility Wind Dir Wind Speed Gust Speed Precip Events Conditions
12:15 AM 55.4 °F 51.8 °F 88% 29.92 in 5.0 mi SSE 12.7 mph - N/A   Scattered Clouds
12:45 AM 55.4 °F 51.8 °F 88% 29.92 in 5.0 mi SSE 13.8 mph - N/A   Scattered Clouds
1:00 AM 55 °F 52 °F 88% 29.93 in 5 mi SSE 13.8 mph - -   Mist
1:15 AM 55.4 °F 51.8 °F 88% 29.92 in 5.0 mi SSE 13.8 mph - N/A   Scattered Clouds
1:45 AM 55.4 °F 51.8 °F 88% 29.92 in 5.0 mi SSE 12.7 mph - N/A   Scattered Clouds
2:15 AM 55.4 °F 51.8 °F 88% 29.92 in 5.0 mi South 11.5 mph - N/A   Scattered Clouds
2:45 AM 55.4 °F 51.8 °F 88% 29.92 in 5.0 mi SSE 12.7 mph - N/A   Scattered Clouds
3:15 AM 55.4 °F 51.8 °F 88% 29.92 in 5.0 mi SSE 11.5 mph - N/A   Scattered Clouds
3:45 AM 53.6 °F 51.8 °F 94% 29.89 in 5.0 mi SSE 11.5 mph - N/A   Scattered Clouds
4:00 AM 54 °F 51 °F 87% 29.92 in 5 mi SSE 11.5 mph - -   Mist
4:15 AM 53.6 °F 51.8 °F 94% 29.89 in 5.0 mi SSE 11.5 mph - N/A   Scattered Clouds
4:45 AM 53.6 °F 50.0 °F 88% 29.89 in 5.0 mi SSE 9.2 mph - N/A Rain Light Rain
5:15 AM 53.6 °F 50.0 °F 88% 29.89 in 5.0 mi SSE 11.5 mph - N/A   Scattered Clouds
5:45 AM 53.6 °F 50.0 °F 88% 29.89 in 5.0 mi SSE 11.5 mph - N/A   Scattered Clouds
6:15 AM 55.4 °F 51.8 °F 88% 29.86 in 5.6 mi SSE 15.0 mph - N/A   Partly Cloudy
6:45 AM 55.4 °F 51.8 °F 88% 29.86 in 6.2 mi SSE 15.0 mph - N/A   Partly Cloudy
7:00 AM 55 °F 52 °F 87% 29.88 in 7 mi SSE 15.0 mph - -   Partly Cloudy
7:15 AM 53.6 °F 51.8 °F 94% 29.86 in 6.2 mi SSE 13.8 mph - N/A   Scattered Clouds
7:45 AM 55.4 °F 51.8 °F 88% 29.86 in 6.2 mi SSE 16.1 mph - N/A   Scattered Clouds
8:15 AM 55.4 °F 51.8 °F 88% 29.86 in 6.2 mi SSE 16.1 mph - N/A   Scattered Clouds
8:45 AM 57.2 °F 51.8 °F 82% 29.86 in 6.2 mi SE 17.3 mph - N/A   Scattered Clouds
9:15 AM 57.2 °F 51.8 °F 82% 29.86 in 6.2 mi SE 17.3 mph - N/A   Scattered Clouds
9:45 AM 57.2 °F 51.8 °F 82% 29.86 in 6.2 mi SE 16.1 mph - N/A   Scattered Clouds
10:00 AM 58 °F 51 °F 71% 29.88 in 9 mi SE 16.1 mph - -   Partly Cloudy
10:15 AM 59.0 °F 50.0 °F 72% 29.86 in 6.2 mi SE 17.3 mph - N/A   Scattered Clouds
10:45 AM 57.2 °F 50.0 °F 77% 29.86 in 6.2 mi SE 17.3 mph - N/A   Scattered Clouds
11:15 AM 59.0 °F 48.2 °F 67% 29.86 in 6.2 mi SE 19.6 mph - N/A   Scattered Clouds
11:45 AM 60.8 °F 48.2 °F 63% 29.83 in 6.2 mi SE 17.3 mph - N/A   Scattered Clouds
12:15 PM 59.0 °F 50.0 °F 72% 29.83 in 6.2 mi SE 19.6 mph - N/A   Scattered Clouds
12:45 PM 59.0 °F 50.0 °F 72% 29.80 in 6.2 mi SE 16.1 mph - N/A   Scattered Clouds
1:00 PM 59 °F 50 °F 64% 29.82 in 12 mi SE 16.1 mph - -   Partly Cloudy
1:15 PM 60.8 °F 51.8 °F 72% 29.77 in 6.2 mi SE 17.3 mph - N/A   Scattered Clouds
1:45 PM 59.0 °F 51.8 °F 77% 29.77 in 6.2 mi SSE 19.6 mph - N/A   Scattered Clouds
2:15 PM 59.0 °F 50.0 °F 72% 29.77 in 6.2 mi SSE 19.6 mph - N/A   Scattered Clouds
2:45 PM 60.8 °F 50.0 °F 68% 29.74 in 6.2 mi SE 17.3 mph - N/A   Scattered Clouds
3:15 PM 60.8 °F 48.2 °F 63% 29.74 in 6.2 mi SE 17.3 mph 28.8 mph N/A   Scattered Clouds
3:45 PM 60.8 °F 48.2 °F 63% 29.74 in 6.2 mi SE 18.4 mph 34.5 mph N/A   Partly Cloudy
4:00 PM 60 °F 47 °F 53% 29.75 in 12 mi SE 18.4 mph - -   Scattered Clouds
4:15 PM 60.8 °F 46.4 °F 59% 29.74 in 6.2 mi SE 20.7 mph - N/A   Partly Cloudy
4:45 PM 59.0 °F 44.6 °F 59% 29.74 in 6.2 mi SE 17.3 mph - N/A   Partly Cloudy
5:15 PM 57.2 °F 44.6 °F 63% 29.71 in 6.2 mi SE 15.0 mph 26.5 mph N/A   Partly Cloudy
5:45 PM 59.0 °F 44.6 °F 59% 29.71 in 6.2 mi SE 17.3 mph 31.1 mph N/A   Scattered Clouds
6:15 PM 59.0 °F 44.6 °F 59% 29.71 in 6.2 mi SE 18.4 mph - N/A   Scattered Clouds
6:45 PM 59.0 °F 44.6 °F 59% 29.71 in 6.2 mi SE 19.6 mph 34.5 mph N/A   Scattered Clouds
7:00 PM 59 °F 44 °F 47% 29.73 in 7 mi SE 19.6 mph - -   Partly Cloudy
7:15 PM 59.0 °F 42.8 °F 55% 29.71 in 6.2 mi SSE 18.4 mph 32.2 mph N/A   Scattered Clouds
7:45 PM 59.0 °F 42.8 °F 55% 29.71 in 6.2 mi SE 20.7 mph - N/A   Scattered Clouds
8:15 PM 59.0 °F 42.8 °F 55% 29.71 in 6.2 mi SE 19.6 mph 32.2 mph N/A   Scattered Clouds
8:45 PM 59.0 °F 42.8 °F 55% 29.71 in 6.2 mi SE 17.3 mph - N/A   Scattered Clouds
9:15 PM 59.0 °F 44.6 °F 59% 29.71 in 6.2 mi SE 20.7 mph - N/A   Scattered Clouds
9:45 PM 59.0 °F 42.8 °F 55% 29.71 in 6.2 mi SSE 18.4 mph 29.9 mph N/A   Scattered Clouds
10:00 PM 60 °F 44 °F 43% 29.72 in 7 mi SSE 18.4 mph - -   Scattered Clouds
10:15 PM 60.8 °F 44.6 °F 55% 29.68 in 6.2 mi SSE 18.4 mph 29.9 mph N/A   Scattered Clouds
10:45 PM 60.8 °F 46.4 °F 59% 29.68 in 6.2 mi SE 25.3 mph 41.4 mph N/A   Scattered Clouds
11:15 PM 60.8 °F 46.4 °F 59% 29.68 in 6.2 mi SSE 24.2 mph 35.7 mph N/A   Scattered Clouds
11:45 PM 60.8 °F 48.2 °F 63% 29.68 in 6.2 mi SSE 23.0 mph 34.5 mph N/A   Scattered Clouds